Kalispell, MT

3:20 PM MDT on May 26, 2017 (GMT -0600)
Glacier Park International

Weather History for KGPI - January, 2014

Change the Weather History Date:

Saturday, January 18, 2014

  Actual Average Record
Temperature  
Mean Temperature 26 °F 24 °F  
Max Temperature 37 °F 32 °F 54 °F (1919)
Min Temperature 15 °F 17 °F -26 °F (1943)
Degree Days  
Heating Degree Days 39 41  
Month to date heating degree days 668 757  
Since 1 July heating degree days 4107 4271  
Cooling Degree Days 0 0  
Month to date cooling degree days 0 0  
Year to date cooling degree days 0 0  
Moisture  
Dew Point 21 °F    
Average Humidity 76    
Maximum Humidity 92    
Minimum Humidity 59    
Precipitation  
Precipitation 0.00 in 0.04 in 0.37 in (1921)
Month to date precipitation 0.73 0.86  
Year to date precipitation 0.73 0.86  
Snow  
Snow 0.00 in - - ()
Month to date snowfall 10.1  
Year to date snowfall 10.1  
Since 1 July snowfall 43.6  
Snow Depth T in    
Sea Level Pressure  
Sea Level Pressure 30.32 in    
Wind  
Wind Speed 1 mph (NW)    
Max Wind Speed 6 mph    
Max Gust Speed 7 mph    
Visibility 8 miles    
Events Fog    
T = Trace of Precipitation, MM = Missing Value Source: NWS Daily Summary

Daily Weather History Graph

Daily Weather History Graph

Search for Another Location

Airport or City:

Trip Planner

Search our weather history database for the weather conditions in past years. The results will help you decide how hot, cold, wet, or windy it might be!

Date:

Astronomy

Jan. 18, 2014 Rise Set
Actual Time 8:20 AM MST 5:14 PM MST
Civil Twilight 7:45 AM MST 5:49 PM MST
Nautical Twilight 7:07 AM MST 6:28 PM MST
Astronomical Twilight 6:29 AM MST 7:05 PM MST
Moon 8:17 PM MST (1/18) 9:07 AM MST (1/18)
Length of Visible Light 10h 04m
Length of Day
8h 54m
Waning Gibbous, 94% of the Moon is Illuminated
Jan 18
Waning Gibbous
Jan 23
Last Quarter
Jan 30
New
Feb 6
First Quarter
Feb 14
Full

Hourly Weather History & Observations

Time (MST) Temp. Windchill Dew Point Humidity Pressure Visibility Wind Dir Wind Speed Gust Speed Precip Events Conditions
12:55 AM 21.0 °F - 18.0 °F 88% 30.42 in 9.0 mi Calm Calm - N/A   Clear
1:55 AM 19.9 °F 13.4 °F 18.0 °F 92% 30.41 in 10.0 mi WNW 4.6 mph - N/A   Clear
2:55 AM 19.0 °F - 16.0 °F 88% 30.44 in 10.0 mi Calm Calm - N/A   Clear
3:55 AM 18.0 °F 12.7 °F 16.0 °F 92% 30.44 in 9.0 mi WNW 3.5 mph - N/A   Clear
4:55 AM 18.0 °F - 15.1 °F 88% 30.43 in 10.0 mi Calm Calm - N/A   Clear
5:55 AM 17.1 °F - 14.0 °F 88% 30.46 in 10.0 mi Calm Calm - N/A   Clear
6:55 AM 16.0 °F - 14.0 °F 92% 30.46 in 10.0 mi Calm Calm - N/A   Clear
7:55 AM 15.1 °F - 12.9 °F 91% 30.46 in 10.0 mi Calm Calm - N/A   Clear
8:55 AM 17.1 °F - 14.0 °F 88% 30.48 in 10.0 mi Calm Calm - N/A   Clear
9:55 AM 21.9 °F - 18.0 °F 85% 30.47 in 10.0 mi Calm Calm - N/A   Clear
10:55 AM 27.0 °F - 21.0 °F 78% 30.47 in 10.0 mi Calm Calm - N/A   Clear
11:55 AM 30.0 °F - 21.9 °F 72% 30.45 in 10.0 mi Calm Calm - N/A   Clear
12:55 PM 32.0 °F - 24.1 °F 73% 30.40 in 10.0 mi Calm Calm - N/A   Clear
1:55 PM 35.1 °F - 25.0 °F 67% 30.37 in 10.0 mi Calm Calm - N/A   Clear
2:55 PM 37.0 °F - 25.0 °F 62% 30.34 in 10.0 mi Calm Calm - N/A   Clear
3:55 PM 34.0 °F - 26.1 °F 73% 30.32 in 10.0 mi Calm Calm - N/A   Clear
4:55 PM 32.0 °F - 25.0 °F 75% 30.32 in 10.0 mi Calm Calm - N/A   Clear
5:55 PM 26.1 °F - 23.0 °F 88% 30.31 in 10.0 mi Calm Calm - N/A   Clear
6:55 PM 24.1 °F - 21.0 °F 88% 30.30 in 10.0 mi Calm Calm - N/A   Clear
7:55 PM 21.9 °F - 19.0 °F 89% 30.27 in 10.0 mi Calm Calm - N/A   Clear
8:55 PM 21.0 °F - 19.0 °F 92% 30.25 in 10.0 mi Calm Calm - N/A   Clear
9:06 PM 21.2 °F - 19.4 °F 93% 30.12 in 10.0 mi Calm Calm - N/A   Scattered Clouds
9:14 PM 21.2 °F 16.4 °F 19.4 °F 93% 30.12 in 10.0 mi North 3.5 mph - N/A   Mostly Cloudy
9:55 PM 25.0 °F 20.7 °F 21.9 °F 88% 30.24 in 10.0 mi NW 3.5 mph - N/A   Overcast
10:33 PM 26.6 °F - 23.0 °F 86% 30.12 in 9.0 mi Calm Calm - N/A   Overcast
10:55 PM 26.1 °F - 24.1 °F 92% 30.23 in 9.0 mi Calm Calm - N/A   Overcast
11:15 PM 28.4 °F - 26.6 °F 93% 30.12 in 1.8 mi Calm Calm - N/A   Overcast
11:23 PM 26.6 °F - 24.8 °F 93% 30.12 in 3.0 mi Calm Calm - N/A   Overcast
11:40 PM 26.6 °F - 26.6 °F 100% 30.13 in 1.8 mi Calm Calm - N/A   Overcast
11:44 PM 28.4 °F - 26.6 °F 93% 30.13 in 0.8 mi Calm Calm - N/A   Overcast
11:55 PM 27.0 °F - 26.1 °F 96% 30.21 in 0.5 mi Calm Calm - N/A Fog Light Freezing Fog